Location: Sungai Bunut
(2.6333°N, 113.7333°E)
Time: 12:38:12
(UTC+00:00)

Atlas Centaur 2 - Pass Details

Date: 16 October 2021
Orbit: 459 x 1307 km, 30.4° (Epoch: 28 November)

Event Time Altitude Azimuth Distance (km) Brightness Sun altitude
Exits shadow 21:34:25 - 248° (WSW) 3,045 4.6 -9.3°
Reaches altitude 10° 21:35:33 10° 249° (WSW) 2,634 4.2 -9.0°
Maximum altitude 21:41:38 55° 326° (NW) 924 2.2 -7.5°
Drops below altitude 10° 21:46:24 10° 44° (NE) 2,063 4.8 -6.4°
Sets 21:48:32 0° 49° (NE) 2,861 5.6 -5.8°
